Volver al catálogo

SL-3 R/B

ActivoPO
NORAD 11166·ROCKET BODY·🇷🇺 Russia

Lanzado Dec 23, 1978 desde Plesetsk Cosmodrome

Loading…

Próximos Pases (próximas 24 horas)

TLE

ActualizadoSource: Space-Track

Época: Sep 14, 2026, 14:27 UTC

1 11166U 78121B   26257.60254142 -.00000060  00000-0 -37354-4 0  9994
2 11166  81.2370 113.1094 0066162   8.7890 351.4424 14.14284937460859

Sigue SL-3 R/B en tiempo real con AllMySat

Download on the App Store